www.pogodaiklimat.ru

Погода и климат >> Архив погоды >> ОАЭ >> Абу-Даби Батин аэропорт


ПОГОДА в Абу-Даби Батин аэропорту

  • Прогноз погоды в Абу-Даби Батин аэропорту
  • Монитор погоды в Абу-Даби Батин аэропорту

АРХИВ ПОГОДЫ в Абу-Даби Батин аэропорту

Время (UTC), дата Ветер
(напр.,м/с)
 
Видим.   Явления Облачность Т
(С)
Тd
(С)
f
(%)
Тe
(С)
Тes
(С)
Комфортность P
(гПа)
Po
(гПа)
Тmin
(С)
Tmax
(С)
R
(мм)
R24
(мм)
S
(см)
06 15.08 ЮВ 4 8000 м пыль ясно +38.8 +18.0 30 +42 +52 опасность
перегрева
1001.0 1000.6 +33.6
09 15.08 В 4 10 км ясно +43.8 +16.5 21 +46 +61 опасность
перегрева
999.6 999.2
12 15.08 С 5 8000 м пыль ясно +41.3 +21.3 32 +48 +52 опасность
перегрева
997.5 997.1
15 15.08 С 5 6000 м пыль ясно +36.8 +27.4 59 +56 +56 опасность
перегрева
998.0 997.6
18 15.08 С 3 6000 м мгла ясно +35.2 +28.6 69 +58 +58 опасность
перегрева
999.9 999.5 +45.6
21 15.08 СВ 2 7000 м мгла ясно +35.2 +27.3 64 +54 +54 опасность
перегрева
999.5 999.1
00 16.08 С 4 7000 м мгла ясно +34.4 +29.7 77 +61 +61 опасность
перегрева
999.0 998.6
03 16.08 ЮВ 4 4500 м пыль ясно +34.2 +21.9 49 +43 +44 опасность
перегрева
1000.4 1000.0
06 16.08 ЮВ 5 7000 м пыль ясно +38.1 +18.9 33 +43 +50 опасность
перегрева
1000.3 999.9 +33.4
09 16.08 З 3 9000 м пыль ясно +43.7 +16.4 21 +46 +64 опасность
перегрева
999.0 998.6
12 16.08 С 7 5000 м пыль ясно +38.7 +25.7 48 +53 +56 опасность
перегрева
997.1 996.7
15 16.08 С 6 6000 м мгла ясно +35.8 +29.3 69 +60 +60 опасность
перегрева
997.3 996.9
18 16.08 С 4 8000 м мгла ясно +35.0 +28.6 70 +58 +58 опасность
перегрева
998.4 998.0 +45.2
21 16.08 З 2 7000 м мгла ясно +34.8 +26.9 64 +53 +53 опасность
перегрева
997.6 997.2
00 17.08 СЗ 4 6000 м мгла ясно +33.8 +30.6 83 +63 +63 опасность
перегрева
997.2 996.8
03 17.08 нст 1 8000 м мгла 1/1 900 м
[Sc]
+33.8 +29.3 77 +58 +59 опасность
перегрева
998.1 997.7
06 17.08 ЮВ 3 5000 м пыль ясно +37.6 +25.0 49 +51 +64 опасность
перегрева
999.3 998.9 +33.4
09 17.08 С 5 8000 м пыль ясно +38.8 +28.1 55 +59 +70 опасность
перегрева
998.0 997.6
12 17.08 С 6 5000 м пыль ясно +37.5 +27.5 57 +56 +60 опасность
перегрева
996.7 996.3
15 17.08 С 4 5000 м мгла ясно +35.6 +28.7 68 +58 +58 опасность
перегрева
996.7 996.3
18 17.08 С 4 6000 м мгла ясно +34.6 +28.7 72 +58 +58 опасность
перегрева
997.9 997.5 +42.5
21 17.08 СЗ 3 6000 м мгла ясно +34.2 +29.2 75 +58 +58 опасность
перегрева
997.6 997.2
00 18.08 СЗ 2 8000 м мгла ясно +34.4 +25.4 60 +49 +49 опасность
перегрева
998.1 997.7
03 18.08 С 2 4500 м мгла ясно +33.9 +29.1 76 +58 +59 опасность
перегрева
999.5 999.1
06 18.08 С 3 6000 м пыль ясно +36.6 +28.9 65 +60 +73 опасность
перегрева
1000.8 1000.4 +33.5
09 18.08 С 5 7000 м пыль 1/0
[Ac trans]
+38.6 +28.2 56 +59 +71 опасность
перегрева
1000.0 999.6
12 18.08 СЗ 6 5000 м пыль ясно +37.8 +28.9 61 +61 +64 опасность
перегрева
998.6 998.2
15 18.08 нст 3 8000 м пыль 4/1 1050 м
[Cu hum Ci fib]
+36.1 +28.9 67 +60 +60 опасность
перегрева
1000.9 1000.5
18 18.08 СЗ 3 8000 м пыль 3/0
[Ac trans]
+36.1 +27.9 63 +56 +56 опасность
перегрева
1001.3 1000.9 +40.1
21 18.08 С 3 10 км 5/0
[Ac trans]
+35.2 +28.1 67 +56 +56 опасность
перегрева
1000.9 1000.5
00 19.08 С 5 10 км 4/0
[Ac trans]
+34.8 +28.4 70 +57 +57 опасность
перегрева
999.9 999.5
03 19.08 ЮВ 4 10 км 4/0
[Ac trans]
+34.7 +22.7 50 +44 +45 опасность
перегрева
1002.5 1002.1
06 19.08 ЮВ 4 3000 м пыль ясно +37.5 +21.2 39 +45 +54 опасность
перегрева
1003.4 1003.0 +34.6
09 19.08 нст 2 6000 м пыль ясно +42.2 +19.2 27 +47 +69 опасность
перегрева
1002.1 1001.7
12 19.08 С 6 4500 м пыль ясно +39.6 +25.4 45 +53 +57 опасность
перегрева
1000.6 1000.2
15 19.08 С 5 5000 м пыль ясно +35.9 +28.2 65 +57 +57 опасность
перегрева
1001.4 1001.0
18 19.08 С 4 8000 м пыль ясно +35.3 +27.4 64 +54 +54 опасность
перегрева
1002.8 1002.4 +42.8
21 19.08 СВ 4 10 км ясно +34.5 +26.6 64 +52 +52 опасность
перегрева
1002.2 1001.8
00 20.08 В 3 10 км ясно +33.6 +24.7 60 +47 +47 опасность
перегрева
1002.3 1001.9
03 20.08 ЮВ 4 4000 м пыль ясно +33.3 +19.7 45 +39 +40 очень
душно
1004.6 1004.2
06 20.08 ЮВ 5 7000 м пыль ясно +35.6 +17.7 35 +39 +47 очень
душно
1005.7 1005.3 +31.9
09 20.08 Ю 3 10 км ясно +40.6 +17.2 26 +43 +62 опасность
перегрева
1004.0 1003.6
12 20.08 З 2 10 км ясно +43.2 +13.5 18 +43 +51 опасность
перегрева
1002.1 1001.7
15 20.08 СЗ 4 10 км ясно +36.4 +26.1 56 +52 +52 опасность
перегрева
1002.6 1002.2
18 20.08 С 4 8000 м мгла ясно +34.4 +28.8 73 +58 +58 опасность
перегрева
1003.6 1003.2 +44.0
21 20.08 В 4 8000 м мгла ясно +32.8 +27.5 74 +52 +52 опасность
перегрева
1003.0 1002.6
00 21.08 В 2 6000 м пыль ясно +32.1 +26.5 72 +49 +49 опасность
перегрева
1003.5 1003.1
03 21.08 ЮВ 3 8000 м пыль ясно +31.9 +24.9 67 +45 +46 опасность
перегрева
1004.2 1003.8
06 21.08 Ю 4 10 км ясно +35.6 +19.0 38 +40 +50 очень
душно
1005.2 1004.8 +31.3
09 21.08 нст 2 10 км ясно +41.3 +16.6 24 +43 +64 опасность
перегрева
1003.4 1003.0
12 21.08 С 5 10 км ясно +41.5 +16.0 23 +43 +48 опасность
перегрева
1001.6 1001.2
15 21.08 С 3 10 км ясно +35.8 +24.7 53 +49 +49 опасность
перегрева
1001.8 1001.4
18 21.08 С 3 9000 м мгла ясно +34.2 +26.3 64 +51 +51 опасность
перегрева
1002.5 1002.1 +43.1
21 21.08 В 2 8000 м мгла ясно +32.8 +26.7 70 +50 +50 опасность
перегрева
1001.7 1001.3
00 22.08 В 3 6000 м мгла ясно +31.9 +26.5 73 +48 +48 опасность
перегрева
1001.8 1001.4
03 22.08 В 3 7000 м мгла ясно +31.6 +25.3 69 +46 +47 опасность
перегрева
1002.6 1002.2

 

Местоположение метеостанции Абу-Даби Батин аэропорт (ОАЭ): широта 24.43 долгота 54.46 высота над уровнем моря 5 м.

В архиве по умолчанию представлена погода в Абу-Даби Батин аэропорту за последнюю неделю. Архивные данные за месяц целиком и за предыдущие месяцы, начиная с января 2011 года, Вы можете получить, выбрав интересующий диапазон дат из раскрывающегося списка и нажав кнопку "Ввод!".


*Определитесь, кто Вы:
робот инопланетянин человек

Внимание! Время в таблицах - всемирное. Для получения местного времени необходимо прибавить поправку, которая равна 4 ч.

Смотрите также архив погоды в соседних городах и на ближайших метеорологических станциях:

Погода в Абу-Даби (ОАЭ) (19 км)
Погода в Аль-Мактум аэропорту (ОАЭ) (88 км)
Погода в Эль-Айне (ОАЭ) (117 км)
Погода в Дубае (ОАЭ) (127 км)
Погода в Эль-Бурайми (Оман) (136 км)
Погода в Шардже (ОАЭ) (146 км)
Погода на Острове Абу-Муса (Иран) (160 км)
Погода на Острове Сирри (Иран) (165 км)
Погода в Кумейре (Оман) (185 км)
Погода в Рай-эль-Хайма аэропорту (ОАЭ) (199 км)

Пояснения к столбцам:

Ветер - указаны скорость ветра в м/с - средняя за 10 мин, порывы в срок и между сроками (в фигурных скобках) и направление, откуда дует ветер: С - северный, СВ - северо-восточный, В - восточный, ЮВ - юго-восточный, Ю - южный, ЮЗ - юго-западный, З - западный, СЗ - северо-западный.
Видимость - горизонтальная дальность видимости в метрах или километрах. При видимости от 1 до 10 км при отсутствии осадков обычно наблюдается дымка, при ухудшении видимости до 1 км и менее - туман. В сухую погоду видимость может ухудшаться дымом, пылью или мглою.
Явления - указаны атмосферные явления, наблюдавшиеся в срок или в последний час перед сроком; фигурными скобками обозначены явления, наблюдавшиеся между сроками (за 1-3 часа до срока); квадратными скобками обозначены град или гололедные отложения с указанием их диаметра в мм.
Облачность - указаны через наклонную черту общая и нижняя облачность в баллах и высота нижней границы облаков в метрах; квадратными скобками обозначены формы облаков: Ci - перистые, Cs - перисто-слоистые, Cc - перисто-кучевые, Ac - высококучевые, As - высокослоистые, Sc - слоисто-кучевые, Ns - слоисто-дождевые, Cu - кучевые, Cb - кучево-дождевые. Подробнее классификацию облаков см. в Атласе облаков (PDF).
T - Температура воздуха - температура, измеренная на высоте 2 м над землей.
Td - Температура точки росы - температура, при понижении до которой содержащийся в воздухе водяной пар достигнет насыщения.
f - Относительная влажность воздуха - влажноcть воздуха, измеренная на высоте 2 м над землей.
Te - Эффективная температура - температура, которую ощущает одетый по сезону человек в тени. Характеристика душности погоды. При расчете учитывается влияние влажности воздуха и скорости ветра на теплоощущения человека.
Tes - Эффективная температура на солнце - температура, которую ощущает человек, с поправкой на солнечный нагрев. Характеристика знойности погоды. Зависит от высоты солнца над горизонтом, облачности и скорости ветра. Ночью, в пасмурную погоду, а также при ветре 12 м/с и более поправка равна нулю.
P - Атмосферное давление - приведенное к уровню моря атмосферное давление.
Po - Атмосферное давление - измеренное на уровне метеостанции атмосферное давление.
Tmin - Минимальная температура - минимум температуры воздуха на высоте 2 м над землей.
Tmax - Максимальная температура - максимум температуры воздуха на высоте 2 м над землей.
R - Количество осадков - Количество выпавших осадков за период времени, мм. При наведении курсора мыши на число - период времени, за который выпало указанное количество осадков.
R24 - Количество осадков - Количество выпавших осадков за 24 часа, мм.
S - Снежный покров - Высота снежного покрова, см. При наведении курсора мыши на число - состояние снежного покрова и степень покрытия местности в баллах.